Weather History for Christmas Island, IS

Change the Weather History Date:

Saturday, February 15, 2014

  Actual Average Record
Temperature  
Mean Temperature 77 °F -  
Max Temperature 80 °F 79 °F 84 °F (1998)
Min Temperature 74 °F 71 °F 71 °F (2000)
Cooling Degree Days 12    
Growing Degree Days 27 (Base 50)    
Moisture  
Dew Point 73 °F    
Average Humidity 85    
Maximum Humidity 96    
Minimum Humidity 72    
Precipitation  
Precipitation 0.00 in - - ()
Sea Level Pressure  
Sea Level Pressure 29.83 in    
Wind  
Wind Speed 6 mph ()    
Max Wind Speed 14 mph    
Max Gust Speed 25 mph    
Visibility 6.2 miles    
Events Rain    
Averages and records for this station are not official NWS values.
T = Trace of Precipitation, MM = Missing Value Source: Averaged Metar Reports

Daily Weather History Graph

Daily Weather History Graph

Search for Another Location

Airport:

Trip Planner

Search our weather history database for the weather conditions in past years. The results will help you decide how hot, cold, wet, or windy it might be!

Date:

Astronomy

Feb. 15, 2014 Rise Set
Actual Time 5:58 AM CXT 6:24 PM CXT
Civil Twilight 5:36 AM CXT 6:45 PM CXT
Nautical Twilight 5:11 AM CXT 7:11 PM CXT
Astronomical Twilight 4:46 AM CXT 7:36 PM CXT
Moon 6:30 PM CXT 5:56 AM CXT
Length of Visible Light 13h 09m
Length of Day
12h 25m
Full, 100% of the Moon is Illuminated
Feb 15
Full
Feb 23
Last Quarter
Mar 1
New
Mar 8
First Quarter
Mar 17
Full

Hourly Weather History & Observations

Time (CXT) Temp. Heat Index Dew Point Humidity Pressure Visibility Wind Dir Wind Speed Gust Speed Precip Events Conditions
12:00 AM 77 °F - 75 °F 90% 29.84 in - West 1.2 mph - -   Overcast
12:00 AM 77.0 °F - 75.2 °F 94% 29.89 in - West 1.2 mph - N/A   Mostly Cloudy
12:04 AM 77.0 °F - 75.2 °F 94% 29.89 in - West 1.2 mph - N/A   Mostly Cloudy
12:39 AM 78.8 °F - 75.2 °F 89% 29.86 in - NW 3.5 mph - N/A   Mostly Cloudy
12:50 AM 78.8 °F - 75.2 °F 89% 29.86 in - NW 3.5 mph - N/A   Mostly Cloudy
1:00 AM 78 °F - 75 °F 86% 29.82 in - WNW 4.6 mph - -  
1:00 AM 77.0 °F - 75.2 °F 94% 29.86 in - WNW 4.6 mph - N/A   Mostly Cloudy
2:00 AM 77.0 °F - 75.2 °F 94% 29.83 in - WNW 4.6 mph - N/A   Scattered Clouds
2:21 AM 78.8 °F - 75.2 °F 89% 29.83 in - WNW 4.6 mph - N/A   Mostly Cloudy
3:00 AM 78 °F - 75 °F 87% 29.79 in - WNW 4.6 mph - -  
3:00 AM 78.8 °F - 75.2 °F 89% 29.83 in - WNW 4.6 mph - N/A   Mostly Cloudy
4:00 AM 78 °F - 74 °F 86% 29.79 in - WNW 4.6 mph - -  
4:00 AM 78.8 °F - 75.2 °F 89% 29.83 in - WNW 4.6 mph - N/A   Mostly Cloudy
5:00 AM 77.0 °F - 75.2 °F 94% 29.83 in - West 4.6 mph - N/A   Scattered Clouds
5:16 AM 77.0 °F - 75.2 °F 94% 29.83 in - WSW 4.6 mph - N/A   Mostly Cloudy
6:00 AM 75 °F - 72 °F 89% 29.81 in - SW 10.4 mph - -   Overcast
6:00 AM 75.2 °F - 73.4 °F 94% 29.83 in - SW 10.4 mph - N/A   Mostly Cloudy
6:33 AM 75.2 °F - 73.4 °F 94% 29.86 in - WSW 10.4 mph 21.9 mph N/A   Overcast
7:00 AM 74 °F - 73 °F 96% 29.83 in - WSW 8.1 mph - -  
7:01 AM 75.2 °F - 73.4 °F 94% 29.86 in - WSW 8.1 mph - N/A   Overcast
7:59 AM 73.4 °F - 71.6 °F 94% 29.89 in - West 10.4 mph - N/A   Mostly Cloudy
8:00 AM 73.4 °F - 71.6 °F 94% 29.89 in - West 9.2 mph 20.7 mph N/A   Mostly Cloudy
9:00 AM 75 °F - 71 °F 83% 29.85 in - West 9.2 mph - -  
9:00 AM 75.2 °F - 71.6 °F 89% 29.89 in - West 9.2 mph - N/A   Unknown
10:00 AM 77 °F - 71 °F 75% 29.86 in - West 8.1 mph - -  
10:00 AM 77.0 °F - 69.8 °F 78% 29.89 in 6.2 mi West 8.1 mph - N/A   Unknown
11:00 AM 78.8 °F - 71.6 °F 78% 29.86 in 6.2 mi WNW 10.4 mph - N/A   Unknown
12:00 PM 78 °F - 71 °F 74% 29.81 in - WNW 10.4 mph - -  
12:00 PM 78.8 °F - 71.6 °F 78% 29.83 in 6.2 mi WNW 10.4 mph 25.3 mph N/A   Scattered Clouds
12:13 PM 78.8 °F - 73.4 °F 83% 29.83 in 6.2 mi WNW 11.5 mph - N/A   Mostly Cloudy
12:25 PM 78.8 °F - 75.2 °F 89% 29.83 in - WNW 11.5 mph - N/A   Scattered Clouds
1:00 PM 79 °F - 72 °F 72% 29.78 in - WNW 13.8 mph - -  
1:00 PM 78.8 °F - 71.6 °F 78% 29.80 in 6.2 mi WNW 13.8 mph - N/A Rain Light Rain Showers
2:00 PM 80.6 °F 84.6 °F 71.6 °F 74% 29.80 in 6.2 mi WNW 11.5 mph - N/A   Unknown
3:00 PM 79 °F - 72 °F 73% 29.75 in - WNW 10.4 mph - -  
3:00 PM 78.8 °F - 71.6 °F 78% 29.80 in 6.2 mi WNW 10.4 mph - N/A   Unknown
4:00 PM 79 °F - 73 °F 77% 29.74 in - WNW 11.5 mph - -  
4:00 PM 78.8 °F - 73.4 °F 83% 29.77 in 6.2 mi WNW 11.5 mph - N/A   Unknown
5:00 PM 78.8 °F - 73.4 °F 83% 29.80 in - WNW 9.2 mph - N/A   Unknown
6:00 PM 79 °F - 73 °F 78% 29.76 in - WNW 9.2 mph - -  
6:00 PM 78.8 °F - 73.4 °F 83% 29.80 in - WNW 9.2 mph - N/A   Unknown
7:00 PM 79 °F - 74 °F 80% 29.78 in - WNW 9.2 mph - -  
7:00 PM 78.8 °F - 73.4 °F 83% 29.80 in - WNW 9.2 mph - N/A   Scattered Clouds
8:00 PM 78.8 °F - 73.4 °F 83% 29.83 in - NW 8.1 mph - N/A   Scattered Clouds
8:32 PM 78.8 °F - 75.2 °F 89% 29.86 in - NW 8.1 mph - N/A   Mostly Cloudy
9:00 PM 79 °F - 73 °F 78% 29.82 in - NW 9.2 mph - -  
9:00 PM 78.8 °F - 73.4 °F 83% 29.86 in - NW 9.2 mph - N/A   Scattered Clouds
10:00 PM 79 °F - 74 °F 79% 29.83 in - NW 10.4 mph - -  
10:00 PM 78.8 °F - 73.4 °F 83% 29.86 in - NW 10.4 mph - N/A   Scattered Clouds
11:00 PM 78.8 °F - 73.4 °F 83% 29.86 in 6.2 mi NW 10.4 mph - N/A   Scattered Clouds